DateTimeUTC,F1_A11,F1_S11,BsB_S11,BsG_S11,BsR_S11,BbsB_S11,BbsG_S11,BbsR_S11,BaB_A11,BaG_A11,BaR_A11,Tu_S11,T_S11,Uu_S11,U_S11,P_S11,T1_A11
2021-08-18T13:00:00Z,00000200,20000000,,,,,,,0000.01,-000.02,0000.02,19.9,26.3,11.5,07.8,0677.9,31.1
2021-08-18T13:01:00Z,00000200,20000000,,,,,,,-000.24,-000.01,-000.07,19.9,26.3,11.5,07.8,0677.9,31.1
2021-08-18T13:02:00Z,00000200,20000000,,,,,,,0000.10,0000.02,0000.25,19.9,26.3,11.5,07.8,0677.9,31.1
2021-08-18T13:03:00Z,00000200,60000000,,,,,,,0000.45,0000.29,0000.21,19.9,26.3,11.5,07.8,0677.9,31.1
2021-08-18T13:04:00Z,00000200,40000000,0001.14,0000.56,0000.69,-000.18,-000.06,0000.45,0000.13,0000.11,0000.01,20.0,26.2,11.5,07.9,0678.9,31.1
2021-08-18T13:05:00Z,00000200,00000000,0000.54,0000.87,0000.40,0000.42,0000.15,-000.08,-000.14,-000.22,0000.03,20.1,26.2,11.7,08.1,0678.9,31.1
2021-08-18T13:06:00Z,00000200,00000000,0000.52,0000.28,0000.59,0000.06,-000.18,0000.56,0000.15,0000.17,-000.18,20.1,26.1,11.6,08.0,0678.9,31.1
2021-08-18T13:07:00Z,00000200,00000000,0000.34,0000.56,0000.51,-000.09,-000.04,0000.01,0000.10,0000.20,0000.29,20.1,26.1,11.5,08.0,0678.9,31.1
2021-08-18T13:08:00Z,00000200,00000000,-000.02,0000.68,0000.53,-000.04,0000.04,0000.29,0000.19,-000.07,0000.00,20.1,26.1,11.5,08.0,0678.9,31.1
2021-08-18T13:09:00Z,00000200,00000000,0000.69,0000.45,0000.47,0000.37,-000.21,0000.42,0000.08,-000.02,0000.08,20.1,26.2,11.6,08.0,0678.9,31.1
2021-08-18T13:10:00Z,00000200,00000000,0000.30,0000.30,0000.27,0000.23,0000.28,0000.04,-000.06,0000.04,-000.13,20.1,26.2,11.6,08.0,0678.9,31.1
2021-08-18T13:11:00Z,00000200,00000000,0000.10,0000.29,0000.35,0000.08,-000.19,0000.40,0000.31,0000.30,0000.10,20.1,26.1,11.6,08.0,0678.9,31.1
2021-08-18T13:12:00Z,00000200,00000000,0000.69,0000.60,0000.19,0000.13,0000.43,0000.08,-000.18,-000.03,0000.14,20.1,26.2,11.5,08.0,0678.9,31.1
2021-08-18T13:13:00Z,00000200,00000000,0000.40,0000.22,0000.26,0000.68,-000.24,0000.35,-000.01,0000.09,0000.18,20.1,26.1,11.5,08.0,0678.9,31.1
2021-08-18T13:14:00Z,00000200,00000000,0000.79,0000.53,0000.03,0000.00,0000.20,0000.22,0000.67,0000.45,-000.10,20.1,26.1,11.5,08.0,0679.0,31.1
2021-08-18T13:15:00Z,00000200,00000000,0000.75,0000.31,0000.89,0000.31,-000.07,0000.16,-000.13,0000.07,0000.17,20.1,26.2,11.5,08.0,0678.9,31.1
2021-08-18T13:16:00Z,00000200,00000000,0000.06,0000.66,0000.48,0000.62,-000.12,0000.39,0000.05,-000.04,0000.17,20.2,26.2,11.6,08.1,0678.9,31.1
2021-08-18T13:17:00Z,00000200,00000000,0000.45,0000.66,0000.33,0000.02,0000.02,0000.10,0000.54,0000.38,0000.32,20.1,26.2,11.5,08.0,0678.9,31.1
2021-08-18T13:18:00Z,00000200,00000000,0000.27,0000.61,0000.19,0000.08,-000.05,0000.33,-000.13,-000.29,-000.37,20.2,26.2,11.4,08.0,0678.9,31.1
2021-08-18T13:19:00Z,00000200,00000000,0000.59,0000.63,0000.50,0000.34,-000.00,0000.25,0000.32,0000.77,0000.33,20.2,26.2,11.5,08.0,0678.9,31.1
2021-08-18T13:20:00Z,00000200,00000000,0000.75,0000.36,0000.25,0000.71,0000.30,0000.02,-000.12,-000.41,-000.01,20.2,26.2,11.5,08.0,0678.9,31.1
2021-08-18T13:21:00Z,00000200,00000000,0000.62,0000.18,0000.48,0000.18,0000.13,0000.24,-000.05,0000.20,-000.03,20.2,26.2,11.3,07.9,0678.9,31.1
2021-08-18T13:22:00Z,00000200,00000000,0000.53,0000.55,0000.22,-000.20,-000.05,0000.46,0000.59,-000.15,0000.31,20.2,26.2,11.4,07.9,0678.9,31.1
2021-08-18T13:23:00Z,00000200,00000000,0000.69,0000.13,0000.56,0000.36,0000.21,0000.53,0000.09,0000.44,0000.26,20.2,26.2,11.4,08.0,0678.9,31.1
2021-08-18T13:24:00Z,00000200,00000000,0001.17,0000.53,0000.37,0000.16,0000.36,-000.12,0000.08,0000.29,0000.01,20.2,26.2,11.4,08.0,0678.9,31.1
2021-08-18T13:25:00Z,00000200,00000000,0000.05,0000.62,0000.42,0000.27,0000.32,0000.26,0000.12,0000.01,-000.10,20.2,26.2,11.5,08.0,0678.9,31.1
2021-08-18T13:26:00Z,00000200,00000000,0000.45,0000.22,0000.29,0001.10,0000.27,0000.00,-000.06,-000.05,0000.14,20.2,26.2,11.5,08.0,0678.9,31.1
2021-08-18T13:27:00Z,00000200,00000000,0000.45,0000.30,0000.34,-000.35,-000.05,0000.21,0000.24,0000.23,0000.03,20.2,26.2,11.4,08.0,0678.9,31.1
2021-08-18T13:28:00Z,00000200,00010000,0000.30,0000.39,0000.37,0000.88,0000.17,0000.02,0000.34,0000.13,0000.55,20.3,26.2,11.5,08.0,0678.9,31.1
2021-08-18T13:29:00Z,00000200,00000000,0000.69,0000.38,0000.32,0000.26,0000.03,0000.12,0000.25,0000.06,-000.28,20.3,26.2,11.5,08.0,0679.0,31.1
2021-08-18T13:30:00Z,00000200,00000000,0000.51,0000.20,0000.27,0000.02,0000.05,0000.18,-000.04,0000.17,0000.24,20.3,26.2,11.5,08.0,0679.0,31.1
2021-08-18T13:31:00Z,00000200,00000000,0000.29,0000.30,0000.29,0000.13,-000.30,0000.01,0000.02,-000.09,-000.23,20.3,26.3,11.5,08.0,0679.0,31.1
2021-08-18T13:32:00Z,00000200,00000000,0000.15,0000.19,0000.39,0000.04,0000.06,0000.24,-000.11,-000.37,0000.11,20.3,26.3,11.2,07.8,0679.0,31.1
2021-08-18T13:33:00Z,00000200,00000000,0000.24,0000.33,0000.01,-000.12,0000.21,0000.27,-000.12,0000.46,0000.42,20.3,26.3,11.1,07.8,0679.0,31.1
2021-08-18T13:34:00Z,00000200,00000000,0000.26,0000.44,0000.28,-000.30,0000.20,0000.60,0000.31,0000.12,-000.16,20.3,26.3,11.2,07.8,0679.0,31.1
2021-08-18T13:35:00Z,00000200,00000000,0000.37,0000.60,0000.35,0000.46,-000.14,-000.01,0000.10,0000.05,0000.14,20.3,26.3,11.2,07.8,0679.1,31.1
2021-08-18T13:36:00Z,00000200,00000000,0000.86,0000.79,0000.37,0000.42,0000.20,0000.34,0000.10,0000.23,-000.03,20.3,26.3,11.2,07.8,0679.1,31.1
2021-08-18T13:37:00Z,00000200,00000000,0000.31,0000.50,0000.52,-000.10,-000.03,0000.28,0000.27,0000.07,0000.13,20.3,26.3,11.3,07.9,0679.1,31.1
2021-08-18T13:38:00Z,00000200,00000000,0000.72,0000.19,0000.32,0000.10,-000.04,-000.09,-000.04,-000.23,-000.11,20.3,26.3,11.3,07.9,0679.1,31.1
2021-08-18T13:39:00Z,00000200,00000000,-000.58,0000.65,0000.09,0000.20,0000.31,0000.05,-000.08,0000.13,0000.31,20.3,26.3,11.2,07.8,0679.1,31.1
2021-08-18T13:40:00Z,00000200,00000000,0000.22,0000.74,0000.11,-000.08,0000.06,-000.01,0000.43,0000.71,0000.07,20.3,26.3,11.2,07.8,0679.1,31.1
2021-08-18T13:41:00Z,00000200,00000000,0000.84,0000.23,-000.03,0000.04,-000.05,0000.01,0000.21,0000.30,0000.23,20.3,26.3,11.3,07.9,0679.1,31.1
2021-08-18T13:42:00Z,00000200,00000000,-000.02,0000.27,0000.43,0000.16,-000.04,0000.21,-000.04,-000.47,-000.08,20.4,26.3,11.2,07.8,0679.1,31.1
2021-08-18T13:43:00Z,00000200,00000000,0000.55,0000.79,0000.37,0000.13,0000.25,0000.50,0000.07,0000.25,0000.07,20.4,26.3,11.0,07.7,0679.2,31.1
2021-08-18T13:44:00Z,00000200,00000000,0001.32,0000.62,0000.23,0000.44,0000.22,0000.14,-000.01,0000.07,-000.25,20.4,26.3,11.0,07.7,0679.1,31.1
2021-08-18T13:45:00Z,00000200,00000000,-000.10,0000.36,0000.36,-000.07,-000.17,0000.33,0000.10,-000.09,-000.02,20.4,26.3,10.9,07.6,0679.1,31.1
2021-08-18T13:46:00Z,00000200,00000000,0000.19,0000.53,0000.29,0000.59,0000.10,0000.17,0000.58,0000.50,0000.58,20.4,26.3,11.0,07.7,0679.1,31.1
2021-08-18T13:47:00Z,00000200,00000000,0000.46,0000.47,0000.68,0000.06,0000.31,0000.37,-000.30,-000.06,-000.03,20.4,26.3,11.1,07.7,0679.1,31.1
2021-08-18T13:48:00Z,00000200,00000000,0001.33,0000.62,0000.26,-000.09,-000.24,0000.19,0000.35,0000.20,-000.13,20.4,26.3,11.2,07.8,0679.1,31.1
2021-08-18T13:49:00Z,00000200,00000000,0001.66,0000.51,0000.12,0000.15,-000.04,0000.20,0000.04,0000.07,0000.16,20.4,26.3,11.2,07.8,0679.1,31.1
2021-08-18T13:50:00Z,00000200,00000000,0000.75,0000.62,0000.27,0000.05,-000.08,-000.20,0000.40,0000.25,0000.49,20.4,26.3,11.1,07.7,0679.1,31.1
2021-08-18T13:51:00Z,00000200,00000000,0001.11,0000.57,0000.49,-000.24,-000.26,0000.33,0000.30,0000.17,-000.08,20.4,26.3,11.1,07.8,0679.0,31.1
2021-08-18T13:52:00Z,00000200,00000000,0000.94,0000.63,0000.50,0000.47,0000.21,-000.13,0000.15,0000.59,0000.10,20.4,26.3,11.2,07.8,0679.0,31.1
2021-08-18T13:53:00Z,00000200,00000000,0000.76,0000.69,0000.83,0000.09,0000.30,0000.54,0000.32,-000.12,0000.34,20.4,26.3,11.2,07.8,0679.1,31.1
2021-08-18T13:54:00Z,00000200,00000000,0000.78,0000.70,0000.25,0000.25,0000.09,0000.03,0000.03,0000.22,0000.13,20.4,26.3,11.3,07.9,0679.1,31.1
2021-08-18T13:55:00Z,00000200,00000000,0001.06,0000.54,0000.31,-000.21,-000.02,-000.08,0000.73,0000.26,0000.48,20.4,26.3,11.4,07.9,0679.1,31.1
2021-08-18T13:56:00Z,00000200,00000000,0000.79,0000.99,0000.48,0000.27,-000.06,0000.17,0000.22,0000.64,0000.04,20.4,26.3,11.6,08.1,0679.1,31.1
2021-08-18T13:57:00Z,00000200,40000000,,,,,,,0000.09,-000.34,-000.27,20.4,26.4,11.6,08.1,0679.0,31.1
2021-08-18T13:58:00Z,00000200,60000000,,,,,,,-000.03,0000.25,0000.33,20.2,26.4,11.6,07.9,0678.1,31.1
2021-08-18T13:59:00Z,00000200,20000000,,,,,,,-000.15,-000.40,0000.00,20.1,26.5,11.6,07.9,0678.0,31.1
